metlocid,date_time,avg_airt3m,std_airt3m,min_airt3m,max_airt3m,n_airt3m,n_comments
BRHM,1/1/95,-5.064666667,1.949561887,-10.48,0.47,540,0
BRHM,2/1/95,-8.320431546,4.278852158,-17.57,4.08,672,0
BRHM,3/1/95,-22.90391126,6.892458524,-35.09,-6.37,744,0
BRHM,4/1/95,-29.72548611,7.152728746,-43.99,-9.74,720,0
BRHM,5/1/95,-29.90623654,7.679830113,-45.57,-10.57,744,0
BRHM,6/1/95,-28.26854159,9.884713624,-48.12,-4.81,720,0
BRHM,7/1/95,-29.70315858,7.317261663,-43.75,-9.24,744,0
BRHM,8/1/95,-23.64280541,6.644783031,-34.56,-9.4,221,30
BRHM,11/1/95,-4.118469245,2.408220183,-12.02,2.16,699,0
BRHM,12/1/95,-2.853692874,2.209515868,-8.88,3.92,2976,0
BRHM,1/1/96,-3.7959039,2.36254671,-9.44,4.91,2976,0
BRHM,2/1/96,-8.209324718,5.07419508,-20.07,2.05,2784,0
BRHM,3/1/96,-17.76408601,6.113415313,-31.31,1.11,2976,0
BRHM,4/1/96,-19.18276469,6.367272023,-34.28,-3.61,1823,0
BRHM,11/1/96,-6.648932208,2.552567439,-13.23,0.36,1667,0
BRHM,12/1/96,-2.906841403,1.85214303,-9.22,2.47,2976,0
BRHM,1/1/97,-4.282377882,2.331939457,-9.78,3.61,2948,0
BRHM,2/1/97,-12.16829242,4.229144864,-23.17,-2.68,2688,0
BRHM,3/1/97,-23.9701629,5.626573179,-35.8,-9.63,2947,0
BRHM,4/1/97,-31.17863194,7.720868507,-46.89,-8.33,2880,0
BRHM,5/1/97,-26.06477153,9.726623465,-47.28,-6.16,2976,0
BRHM,6/1/97,-26.43119095,10.13552438,-48.76,-7.23,2880,0
BRHM,7/1/97,-35.84655581,9.412209386,-51.17,-14.46,2976,0
BRHM,8/1/97,-35.93307794,9.160338201,-50.51,-14.04,2976,0
BRHM,9/1/97,-27.16848526,9.622504907,-48.1,-1.92,2786,0
BRHM,10/1/97,-15.43005712,5.329729105,-32.16,-3.91,2976,0
BRHM,11/1/97,-5.846697953,5.717876521,-24.36,4.37,2877,0
BRHM,12/1/97,-5.004663976,3.159417994,-12.09,3.21,2976,0
BRHM,1/1/98,-5.225384876,2.122154852,-11.76,-0.04,2975,0
BRHM,2/1/98,-8.621897325,3.546820384,-18.52,0.73,2688,0
BRHM,3/1/98,-21.80188169,5.016669142,-36.94,-7.97,2976,0
BRHM,4/1/98,-33.65790973,9.403134866,-50.57,-6.08,2880,0
BRHM,5/1/98,-28.68286291,8.976259463,-44.98,-4.31,2976,0
BRHM,6/1/98,-21.96959374,6.834084212,-35.52,-8.89,2880,0
BRHM,7/1/98,-29.45918343,8.696233401,-45.76,-11.24,2976,0
BRHM,8/1/98,-32.77358535,9.374695795,-45.7,-8.29,2976,0
BRHM,9/1/98,-35.53298262,7.291695549,-47.74,-4.41,2880,0
BRHM,10/1/98,-18.92185483,5.660147392,-36.83,-3.21,2976,0
BRHM,11/1/98,-11.08954514,4.819412595,-26.05,-1.72,2880,0
BRHM,12/1/98,-4.359526211,3.334872128,-12.81,7.95,2976,0
BRHM,1/1/99,-3.242288307,2.160392877,-8.16,3.68,2976,0
BRHM,2/1/99,-9.68139881,4.54929114,-22.05,0.44,2688,0
BRHM,3/1/99,-23.89527216,6.748503258,-38.92,-10,2976,0
BRHM,4/1/99,-32.90959375,8.391826277,-47.06,-11.11,2880,0
BRHM,5/1/99,-33.8231418,9.563691933,-51.88,-9.14,2976,0
BRHM,6/1/99,-27.67652085,8.723136807,-44.9,-6.88,2880,0
BRHM,7/1/99,-25.88874663,9.200606009,-42.78,-8.15,2976,0
BRHM,8/1/99,-36.25303762,10.14616938,-50.81,-12.45,2976,0
BRHM,9/1/99,-26.70811456,8.078617802,-43.14,-3.49,2880,0
BRHM,10/1/99,-18.19052419,5.842174265,-36.39,-3.9,2976,0
BRHM,11/1/99,-8.572354171,3.786818734,-20.83,2.4,2880,0
BRHM,12/1/99,-4.251216398,1.739349629,-9.78,0.72,2976,0
BRHM,1/1/00,-4.417956989,2.10300623,-11.02,1.94,2976,0
BRHM,2/1/00,-10.13828664,3.573002354,-19.73,-2.44,2784,0
BRHM,3/1/00,-19.50363911,7.025750434,-39.37,-4.34,2976,0
BRHM,4/1/00,-26.68271875,8.631950737,-41.01,-3.21,2880,0
BRHM,5/1/00,-30.34601811,9.192292719,-46.88,-7.39,2976,0
BRHM,6/1/00,-32.52791666,11.57776103,-48.03,-1.96,2880,0
BRHM,7/1/00,-26.36373318,9.421424554,-48.72,-5.16,2976,0
BRHM,8/1/00,-29.68988911,10.30514724,-47.08,-7.75,2976,0
BRHM,9/1/00,-26.90808679,10.40317922,-45.01,-6.68,2880,0
BRHM,10/1/00,-22.15121304,5.467248195,-34.29,-7.55,2976,0
BRHM,11/1/00,-7.636043757,5.246445391,-26.05,2.6,2879,1
BRHM,12/1/00,-5.054200269,1.668224286,-8.64,-0.47,2976,0
BRHM,1/1/01,-6.079217075,2.892670771,-11.26,7.64,2976,0
BRHM,2/1/01,-8.117384671,3.336073598,-18.03,3.77,2688,0
BRHM,3/1/01,-21.64558468,5.704275588,-32.65,-4.39,2976,0
BRHM,4/1/01,-26.77085764,8.020943123,-44.32,-8.29,2880,0
BRHM,5/1/01,-26.72684812,9.630052873,-43.66,-5.3,2976,0
BRHM,6/1/01,-25.40730207,6.975669915,-41.33,-4.62,2880,0
BRHM,7/1/01,-28.53795025,7.871892104,-44.68,-9.49,2976,0
BRHM,8/1/01,-39.01732861,6.290657078,-51.22,-17.73,2976,0
BRHM,9/1/01,-30.09756248,8.65012283,-44.39,-8.25,2880,0
BRHM,10/1/01,-19.38508064,6.358365019,-37.45,-4.67,2976,0
BRHM,11/1/01,-9.359093747,3.679252232,-21.33,-0.19,2880,0
BRHM,12/1/01,-2.125332884,3.715624254,-9.86,10.28,2974,2
BRHM,1/1/02,-1.713511427,3.735267658,-9.76,10.66,2976,0
BRHM,2/1/02,-8.429441962,3.74400511,-18.26,0.29,2688,0
BRHM,3/1/02,-17.12897178,4.848918501,-31.08,-6.55,2976,0
BRHM,4/1/02,-27.00487847,8.230816,-40.28,-6.9,2880,0
BRHM,5/1/02,-23.68769825,8.141314702,-40.61,-4.52,2976,0
BRHM,6/1/02,-32.92860414,8.609746294,-47.06,-9.53,2880,0
BRHM,7/1/02,-32.40252014,8.801310019,-46.98,-12.47,2976,0
BRHM,8/1/02,-33.69240589,7.343269194,-46.52,-11.75,2976,0
BRHM,9/1/02,-28.45618747,8.21669203,-46.93,-7.57,2880,0
BRHM,10/1/02,-21.80527555,5.741156875,-35.33,-6.06,2976,0
BRHM,11/1/02,-12.14190278,2.601172583,-20.43,-2.94,2880,0
BRHM,12/1/02,-5.483612232,3.049484846,-13.92,1.14,2976,0
BRHM,1/1/03,-3.33355175,3.172210911,-13.98,6.82,2976,0
BRHM,2/1/03,-9.966302076,3.023630826,-19.69,0.07,2688,0
BRHM,3/1/03,-21.13156587,6.243020117,-36.26,-7.44,2976,0
BRHM,4/1/03,-30.63465971,7.600092947,-42.44,-5.12,2880,0
BRHM,5/1/03,-23.2988676,10.03457936,-42.7,0.44,2976,0
BRHM,6/1/03,-29.43965625,7.451978983,-44.67,-11.84,2880,0
BRHM,7/1/03,-28.15498989,7.999841405,-43.43,-10.99,2976,0
BRHM,8/1/03,-32.57472444,8.040395862,-49.13,-11.74,2976,0
BRHM,9/1/03,-26.61690627,8.90983603,-45.64,-9.16,2880,0
BRHM,10/1/03,-17.26549732,4.473603887,-31.01,-6.81,2976,0
BRHM,11/1/03,-10.80118403,2.882911451,-20.64,0.28,2880,0
BRHM,12/1/03,-3.298481184,3.010635331,-11.64,4.54,2976,0
BRHM,1/1/04,-4.881868283,2.58339563,-11.06,4.46,2976,0
BRHM,2/1/04,-10.404375,3.796647496,-21.71,-2.34,2784,0
BRHM,3/1/04,-24.74027215,5.47009429,-38.87,-11.73,2976,0
BRHM,4/1/04,-28.34923959,7.501138114,-43.77,-12.15,2880,0
BRHM,5/1/04,-32.03109206,10.0768175,-47.32,-6.1,2976,0
BRHM,6/1/04,-26.0946979,8.950307966,-42.99,-7.71,2880,0
BRHM,7/1/04,-37.91760077,8.443649374,-50.89,-9.39,2976,0
BRHM,8/1/04,-30.25499998,8.907036235,-46.7,-8.21,2976,0
BRHM,9/1/04,-29.78391318,6.053209118,-40.89,-9.23,2880,0
BRHM,10/1/04,-19.60709006,6.665558018,-39.56,-5,2976,0
BRHM,11/1/04,-7.839451391,4.43869005,-19.11,3.3,2880,0
BRHM,12/1/04,-2.440769491,1.794799709,-9.08,4.11,2976,0
BRHM,1/1/05,-3.443263866,2.725261778,-11.19,7.97,2975,0
BRHM,2/1/05,-10.12450521,4.836591973,-24.5,2.34,2688,0
BRHM,3/1/05,-21.86716061,5.079341561,-32.84,-7.76,2976,0
BRHM,4/1/05,-29.62705207,7.066043142,-42.08,-15.76,2880,0
BRHM,5/1/05,-25.70885416,7.053192196,-41,-7.8,2976,0
BRHM,6/1/05,-28.91416664,8.895386189,-46.16,-3.52,2880,0
BRHM,7/1/05,-31.68964382,9.930151106,-46.02,-2.12,2976,0
BRHM,8/1/05,-31.26482193,8.07166972,-44.38,-9.42,2976,0
BRHM,9/1/05,-27.37500347,10.23054458,-45.06,0.87,2880,0
BRHM,10/1/05,-17.0803797,6.206879486,-32.41,-2.14,2976,0
BRHM,11/1/05,-9.361760416,2.944938225,-17.86,-0.46,2880,0
BRHM,12/1/05,-2.385571238,2.223032923,-9.28,4.68,2976,0
BRHM,1/1/06,-3.651894349,1.757371101,-7.2,-0.11,1098,0
BRHM,5/1/06,-30.04839156,9.869008373,-41.97,-8.98,286,0
BRHM,6/1/06,-26.00117729,11.16063923,-47.37,-6.58,2837,0
BRHM,7/1/06,-36.6659677,8.637598954,-49.02,-15.71,2976,0
BRHM,8/1/06,-24.55409612,8.266673694,-39.96,-7.11,2976,0
BRHM,9/1/06,-26.91715873,9.750208404,-45.7,-4.8,2879,0
BRHM,10/1/06,-22.99629369,5.703880614,-38.03,-7.49,2976,0
BRHM,11/1/06,-10.50975694,5.41696626,-24.96,-1.28,2880,0
BRHM,12/1/06,-5.518508069,2.792195042,-11.92,2.34,2976,0
BRHM,1/1/07,-1.241568957,2.236554975,-6.56,8.01,1791,0
BRHM,9/1/07,-22.1921358,7.100890607,-41.73,-6.19,1929,0
BRHM,10/1/07,-20.07496976,5.485121369,-35.54,-8.17,2976,0
BRHM,11/1/07,-10.55840278,5.264806786,-26.96,-0.92,2880,0
BRHM,12/1/07,-3.595352821,3.589091004,-11.9,5.83,2976,0
BRHM,1/1/08,-3.482316749,2.471994392,-10.42,2.86,2974,0
BRHM,2/1/08,-11.3365194,3.204186063,-19.76,-0.97,2784,0
BRHM,3/1/08,-19.49229166,7.478610463,-34.93,-0.11,2976,0
BRHM,4/1/08,-24.44201041,6.7491999,-37.28,-7.18,2880,0
BRHM,5/1/08,-28.98820564,7.211701704,-44.02,-6.07,2976,0
BRHM,6/1/08,-22.09157637,7.283349704,-38.21,-3.53,2880,0
BRHM,7/1/08,-33.37200939,9.264878756,-47.25,-9.13,2976,0
BRHM,8/1/08,-35.57642474,7.609478616,-49.81,-12.26,2976,0
BRHM,9/1/08,-21.04391666,6.726363063,-40.75,-8.3,2880,0
BRHM,10/1/08,-18.6843414,4.582575122,-32.74,-9.39,2976,0
BRHM,11/1/08,-10.75574652,4.013909906,-21.05,0.14,2880,0
BRHM,12/1/08,-3.304311154,2.727232746,-11.09,5.71,2976,0
BRHM,1/1/09,-3.282063173,2.307275297,-9.1,3.42,2976,0
BRHM,2/1/09,-11.98515625,5.432189258,-25.64,-0.79,2688,0
BRHM,3/1/09,-22.04708333,6.135335245,-34.71,-6.45,2976,0
BRHM,4/1/09,-22.64250693,7.865435569,-41.17,-7.95,2880,0
BRHM,5/1/09,-31.42803428,10.6839855,-47.58,-8.57,2976,0
BRHM,6/1/09,-27.09973263,9.707154812,-48.42,-8.75,2880,0
BRHM,7/1/09,-27.14093077,8.376939071,-41.95,-3.4,2976,0
BRHM,8/1/09,-29.86902216,7.862110385,-43.86,-14.01,2976,0
BRHM,9/1/09,-27.18877082,9.546024726,-48,-3.01,2880,0
BRHM,10/1/09,-21.23957326,4.850796896,-35.15,-5.32,2976,0
BRHM,11/1/09,-7.896475693,5.164426435,-21.2,3.83,2880,0
BRHM,12/1/09,-3.789663866,2.148132788,-9.19,3.68,2975,1
BRHM,1/1/10,-3.827607529,1.990531787,-9.11,5.08,2976,0
BRHM,2/1/10,-9.9906064,4.903371534,-27.59,0.99,2688,0
BRHM,3/1/10,-19.66617271,7.186248033,-36.04,-6.11,2976,0
BRHM,4/1/10,-26.84991668,6.458183165,-40.26,-10.55,2880,0
BRHM,5/1/10,-29.72696235,8.525335349,-47.2,-11.38,2976,0
BRHM,6/1/10,-32.36205901,7.887371051,-44.57,-10.65,2880,0
BRHM,7/1/10,-33.27907256,9.504426262,-49.28,-14.68,2976,0
BRHM,8/1/10,-31.05282929,9.061287989,-49.15,-12.21,2976,0
BRHM,9/1/10,-31.77740279,6.563642758,-47.77,-16.13,2880,0
BRHM,10/1/10,-18.65977486,5.289552647,-37.9,-1.48,2976,0
BRHM,11/1/10,-7.832096149,3.884799856,-17.84,4.11,1789,0
BRHM,1/1/12,-5.949862748,1.398850126,-9.07,-2.52,510,0
BRHM,2/1/12,-8.410474128,3.893727695,-19.09,0.41,2784,0
BRHM,3/1/12,-18.81659275,4.994567284,-31.86,-6.39,2976,0
BRHM,4/1/12,-26.22815624,8.336440751,-41.59,-6.93,2880,0
BRHM,5/1/12,-20.68024527,8.940851863,-37.69,-2.4,2976,0
BRHM,6/1/12,-28.74181942,8.020317185,-41.64,-8.26,2880,0
BRHM,7/1/12,-33.54399531,7.133530852,-46.24,-15.81,2976,0
BRHM,8/1/12,-28.04287634,8.727577837,-44.8,-8.91,2976,0
BRHM,9/1/12,-26.99590551,7.312166411,-44.94,-12.39,2645,0
BRHM,10/1/12,-19.43563171,4.81252623,-36.45,-10.06,2976,0
BRHM,11/1/12,-10.08200486,4.06617808,-23.41,-0.27,2878,0
BRHM,12/1/12,-2.876246639,2.76555101,-11.8,5.37,2976,0
BRHM,1/1/13,-3.465456993,2.162732382,-10.61,3.24,2976,0
BRHM,2/1/13,-10.42990328,3.174955786,-19.24,-1.81,2688,0
BRHM,3/1/13,-18.55516802,6.850599088,-35.4,-4.77,2976,0
BRHM,4/1/13,-31.44249998,7.86156419,-44.85,-8.29,2880,0
BRHM,5/1/13,-26.48893816,7.734546516,-44.31,-6.26,2976,0
BRHM,6/1/13,-28.80460069,8.036522086,-49.02,-9.79,2880,0
BRHM,7/1/13,-34.64134405,7.653703127,-48,-11.73,2976,0
BRHM,8/1/13,-28.92154569,9.059962823,-43.11,-6.38,2976,0
BRHM,9/1/13,-22.56011111,7.26172188,-41.85,-4.5,2880,0
BRHM,10/1/13,-19.93148859,5.406859449,-34.69,-6.72,2976,0
BRHM,11/1/13,-10.28949306,5.679387213,-25.75,1.78,2880,1200
BRHM,12/1/13,-3.159418688,2.267479712,-10.04,4.08,2976,2976
BRHM,1/1/14,-2.066982528,2.583643088,-9.16,3.79,2976,2976
BRHM,2/1/14,-8.828128714,3.914543796,-15.81,0.79,2688,2688
BRHM,3/1/14,-20.12474798,6.618074906,-38.07,-8.87,2976,2976
BRHM,4/1/14,-24.78910763,7.772132676,-39.37,-3.31,2880,2880
BRHM,5/1/14,-24.80769153,9.889307785,-40.76,-5.42,2976,2976
BRHM,6/1/14,-28.94871179,6.989162916,-43.06,-10.54,2880,2880
BRHM,7/1/14,-38.45562162,9.388278476,-50.27,-7.93,2976,2976
BRHM,8/1/14,-24.65127349,8.356224326,-46,-7.45,2976,2976
BRHM,9/1/14,-21.04984029,6.460323963,-34.5,-4.69,2880,2880
BRHM,10/1/14,-15.98387098,4.857295258,-31.51,-2.36,2976,2976
BRHM,11/1/14,-10.99306704,3.298118079,-21.5,-3.93,2879,2879
BRHM,12/1/14,-5.586001344,2.414445975,-12.68,1.78,2976,2976
BRHM,1/1/15,-3.208390458,2.211804704,-9.22,3.39,2976,2976
BRHM,2/1/15,-6.804657736,3.160311345,-14.54,0.62,2688,2688
BRHM,3/1/15,-21.64369959,6.433519198,-32.35,-6,2976,2976
BRHM,4/1/15,-30.52311456,6.799131256,-45.02,-8.9,2880,2880
BRHM,5/1/15,-33.51018819,6.978579127,-45.72,-14.15,2976,2976
BRHM,6/1/15,-29.83125,8.365503894,-44.05,-8.33,2880,2880
BRHM,7/1/15,-31.67972113,7.974747117,-47.89,-11.32,2976,2976
BRHM,8/1/15,-29.08933468,8.6387839,-44.54,-11.22,2976,2976
BRHM,9/1/15,-30.64472566,8.546685188,-49.33,-10.98,2880,2880
BRHM,10/1/15,-17.35670028,4.191823566,-29.78,-4.65,2976,2976
BRHM,11/1/15,-9.61275981,5.499277638,-24.01,0.57,2877,2877
BRHM,12/1/15,-2.73419019,2.628528557,-8.92,8.3,2976,2976
BRHM,1/1/16,-2.289872311,2.620955395,-9.9,6.17,2976,2976
BRHM,2/1/16,-8.47449712,4.386438668,-18.6,3.8,2784,2784
BRHM,3/1/16,-19.74310148,4.801987092,-32.8,-8.85,2976,2976
BRHM,4/1/16,-35.34259692,3.847171553,-42.76,-24.88,1186,1186
BRHM,5/1/16,-26.80454075,9.339227294,-40.5,-4.82,2308,2308
BRHM,6/1/16,-32.47973961,6.399482506,-44.71,-16.52,2880,2880
BRHM,7/1/16,-38.51423349,9.032599416,-49.52,-11.12,2818,2818
BRHM,8/1/16,-31.92803199,9.401636272,-45.67,-6.49,2942,2942
BRHM,9/1/16,-31.44246528,8.663637759,-47.42,-13.51,2880,2880
BRHM,10/1/16,-20.28362232,4.369143491,-32.31,-5.81,2976,2976
BRHM,11/1/16,-9.00244097,4.026809238,-18.93,4.56,2880,2880
BRHM,12/1/16,-3.02562775,2.696543571,-12.74,3.88,2955,2955
BRHM,1/1/17,-3.255910618,2.264829931,-10.37,2.84,2976,2976
BRHM,2/1/17,-8.464817704,3.869610225,-18.14,2.16,2688,2688
BRHM,3/1/17,-19.07724127,5.904466035,-36.07,-5.79,2976,2976
BRHM,4/1/17,-24.91595138,5.972949358,-39.32,-13.57,2880,2880
BRHM,5/1/17,-22.82927754,7.363637053,-36.91,-5.94,2976,2976
BRHM,6/1/17,-28.9709861,8.28696817,-45.86,-9.01,2880,2880
BRHM,7/1/17,-28.70891127,7.48993628,-42.19,-10.74,2976,2976
BRHM,8/1/17,-28.61525538,10.65930678,-46.47,-8.43,2976,2976
BRHM,9/1/17,-29.57116318,7.128218044,-44.26,-8.32,2880,2880
BRHM,10/1/17,-16.49760081,5.303531595,-28.92,-4.44,2976,2976
BRHM,11/1/17,-10.92804659,4.715021698,-22.08,2.3,2877,2877
BRHM,12/1/17,-5.180534272,2.196045981,-11.65,4.77,2976,2976
BRHM,1/1/18,-3.324606856,2.544021533,-10.44,2.98,2976,2976
BRHM,2/1/18,-10.10979538,3.639017456,-20.84,-2.19,2688,2688
BRHM,3/1/18,-17.5332023,5.287161457,-34.37,-2.03,2976,2976
BRHM,4/1/18,-23.4737465,8.245060938,-39.81,-4.01,2880,2880
BRHM,5/1/18,-30.37147852,8.283006971,-43.4,-6.89,2976,2976
BRHM,6/1/18,-24.09556944,6.593815067,-42.36,-9.5,2880,2880
BRHM,7/1/18,-28.8693851,11.41930897,-49.33,-10.25,2976,2976
BRHM,8/1/18,-31.61775198,11.37211983,-46.85,-5.82,2976,2976
BRHM,9/1/18,-26.88165279,7.29876208,-43.03,-9.25,2880,2880
BRHM,10/1/18,-15.76269825,6.424897039,-30.81,0.37,2976,2976
BRHM,11/1/18,-8.32162152,3.730584429,-18.18,0.86,2880,2880
BRHM,12/1/18,-2.256170929,2.751904798,-9.7,6.99,2972,2069
BRHM,1/1/19,-4.093534946,2.055425972,-9.44,3.13,2976,0
BRHM,2/1/19,-8.235245534,2.914954341,-16.81,-2.07,2688,0
BRHM,3/1/19,-18.45552755,5.708022365,-33.49,-4.48,2976,0
BRHM,4/1/19,-25.28294095,9.57866413,-43.23,-5.96,2880,0
BRHM,5/1/19,-23.41506719,7.469423655,-36.91,-7.69,2976,0
BRHM,6/1/19,-26.90539584,9.237723442,-44.65,-7.38,2880,0
BRHM,7/1/19,-24.23749326,9.697057457,-40.4,-0.47,2976,0
BRHM,8/1/19,-27.74963707,10.18525859,-46.41,-8.85,2976,0
BRHM,9/1/19,-26.43863889,7.656463523,-40.87,-10.74,2880,0
BRHM,10/1/19,-18.05607191,4.183623654,-29.96,-8.71,2976,0
BRHM,11/1/19,-7.830809028,3.691441856,-17.54,0.87,2880,0
BRHM,12/1/19,-3.416167061,2.217087416,-8.84,3.51,2969,241
BRHM,1/1/20,-3.744462365,2.494580339,-12.63,2.53,2976,2976
BRHM,2/1/20,-7.556663077,5.062065454,-23.96,5.24,2784,2784
BRHM,3/1/20,-20.74443884,5.740248182,-32.34,-8.81,2976,2976
BRHM,4/1/20,-24.75144099,5.815655753,-37.72,-10.66,2880,2880
BRHM,5/1/20,-27.65207322,6.487272417,-39.67,-9.28,2976,2976
BRHM,6/1/20,-27.29228471,10.56368892,-47.09,-4.44,2880,2880
BRHM,7/1/20,-26.90022177,9.535442804,-44.39,-1.32,2976,2976
BRHM,8/1/20,-26.88215389,7.359792109,-46.72,-5.9,2976,2976
BRHM,9/1/20,-28.45033331,10.10617123,-49.56,-6.83,2880,2880
BRHM,10/1/20,-18.52196236,5.965200482,-31.78,-2.66,2976,2976
BRHM,11/1/20,-9.563843748,4.868551263,-20.82,-0.94,2880,2880
BRHM,12/1/20,-2.494539653,2.17797465,-11.1,3.93,2976,2976
BRHM,1/1/21,-2.936021503,2.552332679,-8.78,6.87,2976,2976
BRHM,2/1/21,-9.595275286,5.163042435,-25.04,1.22,2688,2688
BRHM,3/1/21,-19.33157594,5.62595927,-37.59,-5.33,2976,2976
BRHM,4/1/21,-32.83474305,8.302898822,-51.2,-12.85,2880,2880
BRHM,5/1/21,-30.66733197,11.33966023,-47.58,-7.88,2976,2976
BRHM,6/1/21,-26.24805903,7.397512988,-44.77,-11.19,2880,2880
BRHM,7/1/21,-25.22945565,6.913578963,-40.31,-3.38,2976,2976
BRHM,8/1/21,-33.06186489,11.56580675,-49.24,0.41,2976,2976
BRHM,9/1/21,-24.74298262,6.570350348,-44.08,-9.34,2880,2880
BRHM,10/1/21,-16.39288642,4.369980324,-27.79,-5.18,2976,2976
BRHM,11/1/21,-8.945204858,3.448927713,-20.13,0.89,2880,2880
BRHM,12/1/21,-2.405944222,2.831614333,-9.2,5.64,2976,2976
BRHM,1/1/22,-3.415364708,2.322534789,-10.34,4.07,2975,2975
BRHM,2/1/22,-6.984914431,5.188108113,-19.05,7.6,2688,2688
BRHM,3/1/22,-16.4962332,7.205237621,-33.4,6.22,2976,2976
BRHM,4/1/22,-26.61554512,8.754507096,-42.86,-8.47,2880,2880
BRHM,5/1/22,-21.78120297,7.486095929,-35.72,-2.98,2976,2976
BRHM,6/1/22,-27.07682986,10.93718142,-45.81,-5.73,2880,2880
BRHM,7/1/22,-23.09549059,6.802942836,-40.44,-9.73,2976,2976
BRHM,8/1/22,-28.51403899,11.59616574,-48.22,-4.77,2976,2976
BRHM,9/1/22,-26.94846874,9.387926132,-45.8,-8.36,2880,2880
BRHM,10/1/22,-17.04920699,4.061293881,-26.9,-5.99,2976,2976
BRHM,11/1/22,-12.24011804,5.086676835,-21.44,1.81,2880,2880
BRHM,12/1/22,-4.341219713,2.422808148,-9.04,3.56,1197,1197